Regional Weather Roundup
Issued by NWS

Home | Current Version | Previous Version | Text Only | Print | Product List | Glossary On
Versions: 1 2 3 4 5 6 7 8 9 10 11 12 13 14 15 16 17 18 19 20 21 22 23 24 25 26 27
000
ASCA42 TJSJ 270910
RWRPR
PUERTO RICO/U.S. VIRGIN ISLANDS HOURLY WEATHER ROUNDUP
NATIONAL WEATHER SERVICE SAN JUAN PR
500 AM AST MON FEB 27 2017

PRZ001>002-007>008-010-271000-
PUERTO RICO

CITY           SKY/WX    TMP DP  RH WIND       PRES   REMARKS
SAN JUAN LMM   MOCLDY    75  73  94 S3        30.04S
PONCE          MOCLDY    72  68  88 CALM      30.06R
CEIBA          CLOUDY    79  72  78 E13G21    30.06R
$$

VIZ001>002-271000-
U.S. VIRGIN ISLANDS

CITY           SKY/WX    TMP DP  RH WIND       PRES   REMARKS
CHARLOTTE AMA  MOCLDY    73  70  88 E8        30.02S
CHRISTIANSTED  PTCLDY    73  70  88 NE7       30.03R
$$

HOURLY WEATHER ROUNDUP FOR THE NEWS MEDIA

CITY           SKY/WX    TMP DP  RH WIND       PRES   REMARKS
ORLANDO        CLEAR     57  52  83 NE3       30.21F
NEW YORK       CLEAR     33  24  69 SW10      30.35R WCI  25
NEWARK         CLEAR     31  19  61 SW6       30.34R WCI  25
CHICAGO        PTCLDY    33  24  69 W3        30.09R
HARTFORD       CLEAR     26  19  74 CALM      30.29R
BOSTON         PTCLDY    30  19  63 SW9       30.26S WCI  22
DALLAS         CLOUDY    61  56  83 E6        29.92S
PHILADELPHIA   CLEAR     33  23  66 CALM      30.37R
LOS ANGELES    MOCLDY    50  45  83 E8        29.96F
WASHINGTON DC  PTCLDY    25  19  78 SE3       30.34R



USA.gov is the U.S. government's official web portal to all federal, state and local government web resources and services.